DW2047 Weather Reports


time (UTC)temp
F
wind
direction
speed
knots
gust
knots
rain 1hr
in
rain 24hr
in
rain mn
in
humidity
%
barometer
mb
20260505051553 72 131 6.1 0.0 0.00 0.00 0.00 84 1008.6
20260505051028 72 196 6.1 0.0 0.00 0.00 0.00 84 1008.7
20260505050601 72 148 6.1 0.0 0.00 0.00 0.00 84 1008.7
20260505041556 73 145 3.5 0.0 0.00 0.00 0.00 82 1008.8
20260505041025 73 142 3.5 0.0 0.00 0.00 0.00 81 1008.8
20260505040603 73 155 4.3 0.0 0.00 0.00 0.00 81 1008.8
20260505040048 73 189 4.3 0.0 0.00 0.00 0.00 81 1008.8
20260505035520 74 169 3.5 0.0 0.00 0.00 0.00 80 1008.8
20260505035103 74 153 3.5 0.0 0.00 0.00 0.00 79 1008.8
20260505034551 74 151 3.5 0.0 0.00 0.00 0.00 79 1008.8
20260505034025 74 143 4.3 0.0 0.00 0.00 0.00 79 1008.8
20260505033603 74 130 4.3 0.0 0.00 0.00 0.00 79 1008.8
20260505033052 74 141 4.3 0.0 0.00 0.00 0.00 79 1008.8
20260505032529 74 143 4.3 0.0 0.00 0.00 0.00 79 1008.7
20260505032001 74 148 4.3 0.0 0.00 0.00 0.00 78 1008.6
20260505031517 75 139 4.3 0.0 0.00 0.00 0.00 77 1008.7
20260505031041 75 163 4.3 0.0 0.00 0.00 0.00 77 1008.7
20260505030514 75 142 4.3 0.0 0.00 0.00 0.00 77 1008.7
20260505030003 75 169 4.3 0.0 0.00 0.00 0.00 76 1008.6
20260505025542 75 140 4.3 0.0 0.00 0.00 0.00 75 1008.5
20260505025014 75 155 4.3 0.0 0.00 0.00 0.00 75 1008.6
20260505024530 75 143 4.3 0.0 0.00 0.00 0.00 74 1008.6
20260505024059 75 146 2.6 0.0 0.00 0.00 0.00 73 1008.6
20260505023529 75 151 2.6 0.0 0.00 0.00 0.00 72 1008.6
20260505023034 76 144 2.6 0.0 0.00 0.00 0.00 72 1008.5
20260505022503 76 165 2.6 0.0 0.00 0.00 0.00 72 1008.6
20260505022046 76 186 2.6 0.0 0.00 0.00 0.00 71 1008.5
20260505021549 76 165 2.6 0.0 0.00 0.00 0.00 71 1008.5
20260505021022 76 160 4.3 0.0 0.00 0.00 0.00 71 1008.4
20260505020558 76 156 4.3 0.0 0.00 0.00 0.00 70 1008.3
20260505020049 76 167 4.3 0.0 0.00 0.00 0.00 70 1008.2
20260505015525 76 159 3.5 0.0 0.00 0.00 0.00 70 1008.3
20260505015106 76 189 3.5 0.0 0.00 0.00 0.00 70 1008.3
20260505014601 76 147 2.6 0.0 0.00 0.00 0.00 69 1008.4
20260505014025 76 153 3.5 0.0 0.00 0.00 0.00 69 1008.4
20260505013606 76 150 3.5 0.0 0.00 0.00 0.00 68 1008.4
20260505013105 77 137 2.6 0.0 0.00 0.00 0.00 68 1008.5
20260505012525 77 140 2.6 0.0 0.00 0.00 0.00 67 1008.4
20260505012101 77 144 2.6 0.0 0.00 0.00 0.00 66 1008.4
20260505011548 77 200 3.5 0.0 0.00 0.00 0.00 66 1008.4
20260505011018 77 140 4.3 0.0 0.00 0.00 0.00 65 1008.3
20260505010604 78 138 4.3 0.0 0.00 0.00 0.00 65 1008.4
20260505010051 78 140 2.6 0.0 0.00 0.00 0.00 64 1008.4
20260505005524 78 189 3.5 0.0 0.00 0.00 0.00 64 1008.4
20260505005104 78 158 3.5 0.0 0.00 0.00 0.00 64 1008.4
20260505004555 79 142 4.3 0.0 0.00 0.00 0.00 64 1008.4
20260505004028 79 202 5.2 0.0 0.00 0.00 0.00 64 1008.4
20260505003608 79 190 4.3 0.0 0.00 0.00 0.00 64 1008.3
20260505003005 79 142 3.5 0.0 0.00 0.00 0.00 64 1008.4
20260505002543 79 130 4.3 0.0 0.00 0.00 0.00 64 1008.3
20260505002022 79 138 4.3 0.0 0.00 0.00 0.00 63 1008.3
20260505001519 79 145 4.3 0.0 0.00 0.00 0.00 63 1008.2
20260505001057 79 169 5.2 0.0 0.00 0.00 0.00 63 1008.3
20260505000532 80 142 7.0 0.0 0.00 0.00 0.00 62 1008.2
20260505000055 80 179 7.0 0.0 0.00 0.00 0.00 61 1008.2
20260504235506 81 144 5.2 0.0 0.00 0.00 0.00 61 1008.3
20260504235042 81 140 5.2 0.0 0.00 0.00 0.00 61 1008.3
20260504234531 81 139 5.2 0.0 0.00 0.00 0.00 61 1008.3
20260504234006 81 132 6.1 0.0 0.00 0.00 0.00 61 1008.3
20260504233543 81 148 6.1 0.0 0.00 0.00 0.00 61 1008.4
20260504233036 81 142 5.2 0.0 0.00 0.00 0.00 61 1008.5
20260504232514 81 149 6.1 0.0 0.00 0.00 0.00 60 1008.6
20260504232047 81 161 6.1 0.0 0.00 0.00 0.00 59 1008.6
20260504231536 82 168 4.3 0.0 0.00 0.00 0.00 59 1008.6
20260504231008 82 169 5.2 0.0 0.00 0.00 0.00 58 1008.6
20260504230548 82 157 5.2 0.0 0.00 0.00 0.00 59 1008.6
20260504225523 82 157 5.2 0.0 0.00 0.00 0.00 58 1008.7
20260504225101 83 142 5.2 0.0 0.00 0.00 0.00 58 1008.8
20260504224550 83 170 5.2 0.0 0.00 0.00 0.00 57 1008.7
20260504224022 83 234 6.1 0.0 0.00 0.00 0.00 58 1008.9
20260504223604 83 146 6.1 0.0 0.00 0.00 0.00 57 1008.9
20260504223002 83 98 5.2 0.0 0.00 0.00 0.00 58 1009.0
20260504222540 83 147 5.2 0.0 0.00 0.00 0.00 57 1009.1
20260504222009 82 182 6.1 0.0 0.00 0.00 0.00 59 1009.1
20260504221517 82 148 7.0 0.0 0.00 0.00 0.00 58 1009.1
20260504221056 82 145 7.0 0.0 0.00 0.00 0.00 58 1009.2
20260504220532 82 155 7.0 0.0 0.00 0.00 0.00 58 1009.2
20260504220040 82 115 7.0 0.0 0.00 0.00 0.00 59 1009.2
20260504215511 83 188 5.2 0.0 0.00 0.00 0.00 58 1009.3
20260504215051 82 150 5.2 0.0 0.00 0.00 0.00 59 1009.4
20260504214557 82 138 7.0 0.0 0.00 0.00 0.00 59 1009.4
20260504214029 82 112 7.0 0.0 0.00 0.00 0.00 58 1009.3
20260504213501 82 152 7.0 0.0 0.00 0.00 0.00 59 1009.4
20260504213102 82 191 6.1 0.0 0.00 0.00 0.00 58 1009.4
20260504212529 82 153 5.2 0.0 0.00 0.00 0.00 59 1009.7
20260504212008 82 132 6.1 0.0 0.00 0.00 0.00 59 1009.8
20260504211619 82 134 5.2 0.0 0.00 0.00 0.00 59 1009.9
20260504211034 82 132 5.2 0.0 0.00 0.00 0.00 58 1010.0
20260504210507 82 188 5.2 0.0 0.00 0.00 0.00 58 1010.3
20260504205539 82 140 7.0 0.0 0.00 0.00 0.00 59 1010.3
20260504205010 81 173 6.1 0.0 0.00 0.00 0.00 60 1010.5
20260504204514 81 163 6.1 0.0 0.00 0.00 0.00 59 1010.5
20260504204052 81 104 6.1 0.0 0.00 0.00 0.00 59 1010.7
20260504203529 81 146 6.1 0.0 0.00 0.00 0.00 59 1010.7
20260504203034 81 132 7.0 0.0 0.00 0.00 0.00 59 1010.7
20260504202511 82 183 5.2 0.0 0.00 0.00 0.00 58 1010.8
20260504202043 82 149 5.2 0.0 0.00 0.00 0.00 59 1011.0
20260504201549 81 141 5.2 0.0 0.00 0.00 0.00 59 1011.0
20260504201018 81 149 4.3 0.0 0.00 0.00 0.00 59 1011.1
20260504200553 81 138 4.3 0.0 0.00 0.00 0.00 59 1011.2
20260504200059 81 180 5.2 0.0 0.00 0.00 0.00 59 1011.4
20260504195535 80 138 5.2 0.0 0.00 0.00 0.00 59 1011.3
20260504195011 80 146 5.2 0.0 0.00 0.00 0.00 61 1011.5
20260504194515 80 194 5.2 0.0 0.00 0.00 0.00 60 1011.7
20260504194054 80 171 6.1 0.0 0.00 0.00 0.00 60 1011.8
20260504193526 80 143 5.2 0.0 0.00 0.00 0.00 60 1011.8
20260504193029 80 141 5.2 0.0 0.00 0.00 0.00 61 1011.7
20260504192504 80 205 5.2 0.0 0.00 0.00 0.00 61 1012.0
20260504192047 80 139 5.2 0.0 0.00 0.00 0.00 61 1012.0
20260504191541 80 163 5.2 0.0 0.00 0.00 0.00 60 1012.2
20260504191017 80 205 5.2 0.0 0.00 0.00 0.00 62 1012.2
20260504190556 79 215 5.2 0.0 0.00 0.00 0.00 62 1012.2
20260504190045 78 188 5.2 0.0 0.00 0.00 0.00 62 1012.3
20260504185519 78 186 5.2 0.0 0.00 0.00 0.00 62 1012.4
20260504185058 78 186 5.2 0.0 0.00 0.00 0.00 63 1012.4
20260504184547 78 184 6.1 0.0 0.00 0.00 0.00 64 1012.6
20260504184022 77 183 6.1 0.0 0.00 0.00 0.00 63 1012.5
20260504183559 78 130 5.2 0.0 0.00 0.00 0.00 63 1012.6
20260504183107 78 163 4.3 0.0 0.00 0.00 0.00 65 1012.6
20260504182532 77 186 4.3 0.0 0.00 0.00 0.00 64 1012.8
20260504182008 77 155 5.2 0.0 0.00 0.00 0.00 64 1012.9
20260504181600 77 213 5.2 0.0 0.00 0.00 0.00 64 1012.9
20260504181033 77 117 4.3 0.0 0.00 0.00 0.00 64 1013.1
20260504180513 76 139 5.2 0.0 0.00 0.00 0.00 66 1013.1
20260504180018 76 138 5.2 0.0 0.00 0.00 0.00 66 1013.2
20260504175557 76 178 3.5 0.0 0.00 0.00 0.00 65 1013.3
20260504175029 76 232 4.3 0.0 0.00 0.00 0.00 66 1013.3
20260504174530 76 143 3.5 0.0 0.00 0.00 0.00 66 1013.4
20260504174002 75 163 2.6 0.0 0.00 0.00 0.00 69 1013.5
20260504173541 74 184 3.5 0.0 0.00 0.00 0.00 69 1013.5
20260504173045 74 182 4.3 0.0 0.00 0.00 0.00 67 1013.6
20260504172518 75 213 4.3 0.0 0.00 0.00 0.00 67 1013.9
20260504172057 75 146 3.5 0.0 0.00 0.00 0.00 66 1013.9
20260504171602 75 266 2.6 0.0 0.00 0.00 0.00 69 1014.1
20260504171036 75 155 2.6 0.0 0.00 0.00 0.00 67 1014.2
20260504170510 75 199 2.6 0.0 0.00 0.00 0.00 68 1014.4
20260504151044 71 155 6.1 0.0 0.00 0.00 0.00 72 1014.8
20260504150523 70 186 5.2 0.0 0.00 0.00 0.00 72 1014.8
20260504141039 67 156 4.3 0.0 0.00 0.00 0.00 75 1015.0
20260504140514 67 139 4.3 0.0 0.00 0.00 0.00 76 1014.9
20260504130552 62 135 2.6 0.0 0.00 0.00 0.00 84 1015.0
20260504110506 61 144 2.6 0.0 0.00 0.00 0.00 82 1014.6
20260504100555 61 162 3.5 0.0 0.00 0.00 0.00 81 1015.0
20260504081530 62 156 1.7 0.0 0.00 0.00 0.00 79 1015.3
20260504081107 62 173 1.7 0.0 0.00 0.00 0.00 78 1015.4
20260504080543 62 150 1.7 0.0 0.00 0.00 0.00 78 1015.4